Location: PSU-Greenbush Astrophysical Observatory
(37.5140°N, 94.9880°W)
Time: 20:15:41
(UTC-06:00)

Transit 2A - Pass Details

Date: 02 February 2020
Orbit: 599 x 959 km, 66.7° (Epoch: 25 February)

Event Time Altitude Azimuth Distance (km) Brightness Sun altitude
Rises 17:22:10 0° 191° (S) 2,918 9.6 3.3°
Reaches altitude 10° 17:24:33 10° 184° (S) 1,980 8.6 2.9°
Maximum altitude 17:28:44 43° 113° (ESE) 853 6.1 2.1°
Drops below altitude 10° 17:32:49 10° 42° (NE) 1,943 7.6 1.4°
Sets 17:35:08 0° 35° (NE) 2,856 8.4 0.9°
